[[{"header":{"parameterUnit":"m.s-1","parameterCategory":1,"la1":30.2991,"la2":30.254,"lo1":-89.0895,"lo2":-89.0444,"dy":0.0017,"dx":0.0017,"nx":28,"ny":28,"refTime":"2025-07-04T09:00:00:Z","depth":0,"parameterNumber":2,"parameterNumberName":"U-component_of_WINDS"},"data":[0,0,0,0,0,0,0,0,0,0,0,0,0,0,0,0,0,0,0,0,0,0,0,0,0,0,0,0,0,0,0,0,0,0,0,0,0,0,0,0,0,0,0,0,0,0,0,0,0,0,0,0,0,0,0,0,0,0,-2.8947,-2.8947,0,-2.8957,-2.8957,-2.8957,-2.8945,-2.8944,-2.8944,-2.8944,-2.8956,-2.8957,-2.8958,0,0,0,0,0,0,0,0,0,0,0,0,0,-2.8919,-2.8919,-2.8947,-2.8947,-2.8947,-2.8957,-2.8957,-2.8957,-2.8945,-2.8944,-2.8944,-2.8943,-2.8956,-2.8957,-2.8958,0,0,0,0,0,0,0,0,0,0,0,0,0,-2.893,-2.8919,-2.8947,-2.8942,-2.8942,-2.8957,-2.8957,-2.8957,-2.8945,-2.8944,-2.8944,-2.8943,-2.8956,-2.8957,-2.8958,-2.8979,0,0,-2.8962,-2.8962,0,0,0,0,0,0,0,0,-2.8929,-2.8931,-2.8942,-2.8942,-2.8942,-2.8949,-2.8952,-2.8965,-2.8945,-2.8944,-2.8944,-2.8943,-2.8955,-2.8956,-2.8959,-2.898,-2.898,-2.8962,-2.8962,-2.8963,-2.8963,0,0,0,0,0,0,0,-2.8929,-2.8931,-2.8951,-2.8943,-2.8942,-2.894,-2.8941,-2.8954,-2.8953,-2.8944,-2.8943,-2.8944,-2.8954,-2.8958,-2.896,-2.8981,-2.8962,-2.8963,-2.8963,-2.8964,-2.902,-2.9021,0,0,0,0,0,0,-2.8928,-2.893,-2.895,-2.8951,-2.8934,-2.8941,-2.8942,-2.8947,-2.8953,-2.8953,-2.8945,-2.8944,-2.8957,-2.8958,-2.896,-2.8986,-2.8963,-2.8964,-2.8965,-2.9019,-2.902,-2.9021,0,0,0,0,0,0,-2.8928,-2.893,-2.895,-2.894,-2.8943,-2.8942,-2.8948,-2.8948,-2.8952,-2.8954,-2.8954,-2.8949,-2.8956,-2.8958,-2.8975,-2.8986,-2.8964,-2.8966,-2.9018,-2.902,-2.9021,-2.9037,0,0,0,0,0,0,-2.8927,-2.893,-2.8937,-2.8941,-2.8943,-2.8964,-2.8949,-2.8949,-2.8954,-2.8952,-2.8957,-2.8958,-2.8956,-2.8973,-2.8976,-2.8987,-2.8966,-2.9017,-2.9019,-2.902,-2.9036,-2.9039,-2.9042,0,0,0,0,0,-2.8926,-2.8942,-2.8938,-2.894,-2.8952,-2.8964,-2.8966,-2.8963,-2.8955,-2.8963,-2.8964,-2.8957,-2.8984,-2.8975,-2.8978,-2.899,-2.9017,-2.9019,-2.902,-2.9034,-2.9038,-2.9041,0,0,0,0,0,0,-2.894,-2.8942,-2.8938,-2.8955,-2.896,-2.8962,-2.8972,-2.8967,-2.8975,-2.8973,-2.8969,-2.8971,-2.8988,-2.8991,-2.898,-2.9011,-2.8999,-2.9002,-2.9009,-2.9013,-2.9015,-2.9015,-2.8967,0,0,0,0,0,-2.8945,-2.8954,-2.8956,-2.8971,-2.8973,-2.8972,-2.8977,-2.8975,-2.898,-2.8982,-2.8984,-2.899,-2.9,-2.9006,-2.9015,-2.9036,-2.9038,-2.9046,-2.9049,-2.9051,-2.9054,-2.9066,-2.907,-2.9027,-2.9027,-2.9027,0,0,-2.8956,-2.8958,-2.8964,-2.8974,-2.8977,-2.8987,-2.8974,-2.8985,-2.8993,-2.8984,-2.8999,-2.9001,-2.9008,-2.9026,-2.9035,-2.9029,-2.9066,-2.9054,-2.9055,-2.9056,-2.9068,-2.9072,-2.9076,-2.9028,-2.9028,-2.9028,0,0,-2.8981,-2.8983,-2.8996,-2.9,-2.9005,-2.9004,-2.9008,-2.9011,-2.9012,-2.9027,-2.9021,-2.9031,-2.9047,-2.9052,-2.9057,-2.9085,-2.908,-2.9088,-2.9104,-2.9116,-2.9119,-2.9122,-2.9133,-2.9136,-2.909,-2.909,-2.909,0,-2.8994,-2.9008,-2.9004,-2.9016,-2.902,-2.9012,-2.9026,-2.903,-2.9038,-2.9042,-2.9035,-2.9057,-2.906,-2.9081,-2.9087,-2.9091,-2.9096,-2.9088,-2.9119,-2.9122,-2.9124,-2.9135,-2.9138,-2.9091,-2.9091,-2.9091,-2.9091,0,-2.9024,-2.9034,-2.9044,-2.9052,-2.9058,-2.9071,-2.9069,-2.9076,-2.9073,-2.9074,-2.909,-2.9094,-2.9105,-2.9109,-2.9106,-2.913,-2.9126,-2.9119,-2.9107,-2.9129,-2.9139,-2.9143,-2.9093,-2.9093,-2.9092,-2.9092,0,0,-2.9058,-2.9063,-2.9067,-2.9071,-2.9076,-2.9084,-2.9097,-2.9107,-2.9113,-2.9119,-2.9131,-2.9145,-2.9139,-2.9145,-2.9143,-2.9153,-2.9176,-2.9145,-2.9145,-2.9151,-2.9203,-2.9208,-2.9213,-2.9173,-2.9173,-2.9174,-2.9203,0,-2.9083,-2.9105,-2.9102,-2.9123,-2.9133,-2.9125,-2.9137,-2.9142,-2.9143,-2.9153,-2.9154,-2.9165,-2.9155,-2.9159,-2.9169,-2.9171,-2.9186,-2.9169,-2.9184,-2.9185,-2.9183,-2.9218,-2.9223,-2.925,-2.9206,-2.9207,-2.9207,0,-2.9115,-2.9122,-2.9144,-2.9149,-2.9153,-2.9163,-2.9172,-2.9181,-2.9187,-2.9187,-2.9194,-2.919,-2.9204,-2.9192,-2.9212,-2.92,-2.9207,-2.9209,-2.921,-2.9212,-2.9198,-2.9221,-2.9259,-2.9263,-2.9213,-2.9213,-2.9212,0,-2.9139,-2.9154,-2.9169,-2.9172,-2.9178,-2.9185,-2.9188,-2.9193,-2.92,-2.9208,-2.9212,-2.9222,-2.9228,-2.9236,-2.9236,-2.9226,-2.9257,-2.9244,-2.9258,-2.9258,-2.9265,-2.9265,-2.9305,-2.9268,-2.9268,-2.9268,-2.9268,0,-2.9167,-2.9181,-2.9179,-2.9189,-2.9205,-2.9202,-2.9218,-2.922,-2.9225,-2.9235,-2.923,-2.924,-2.9239,-2.925,-2.925,-2.9267,-2.9269,-2.9271,-2.9271,-2.9272,-2.9271,-2.9276,-2.9274,-2.9269,-2.9269,-2.9269,-2.9269,0,-2.9196,-2.9195,-2.9211,-2.9215,-2.9217,-2.9228,-2.9232,-2.9242,-2.9242,-2.9256,-2.9259,-2.9261,-2.9273,-2.9274,-2.9288,-2.9288,-2.931,-2.9307,-2.9307,-2.9307,-2.9321,-2.932,-2.9366,-2.9372,-2.9331,-2.9332,-2.9332,0,-2.9214,-2.9225,-2.923,-2.9236,-2.924,-2.925,-2.9256,-2.9254,-2.9261,-2.9269,-2.9278,-2.929,-2.9299,-2.932,-2.9323,-2.9334,-2.9333,-2.9348,-2.9334,-2.9335,-2.9334,-2.9333,-2.9335,-2.9351,-2.9351,-2.9351,-2.9352,0,-2.9248,-2.9247,-2.9256,-2.9265,-2.9272,-2.9279,-2.9286,-2.9292,-2.929,-2.9299,-2.9311,-2.9318,-2.9333,-2.9345,-2.9356,-2.9361,-2.9357,-2.9356,-2.936,-2.9361,-2.9361,-2.9362,-2.9315,-2.9355,-2.9355,-2.9354,-2.9354,-2.9354,-2.9272,-2.9281,-2.9287,-2.9297,-2.9302,-2.9308,-2.9317,-2.9319,-2.9329,-2.9341,-2.9339,-2.9353,-2.9361,-2.9375,-2.938,-2.9392,-2.9387,-2.9392,-2.9394,-2.9396,-2.9397,-2.9359,-2.9394,-2.9394,-2.9394,-2.9394,-2.9394,0,-2.9306,-2.9309,-2.9318,-2.9327,-2.9336,-2.933,-2.9338,-2.9346,-2.9358,-2.9364,-2.9374,-2.9388,-2.9401,-2.9405,-2.9417,-2.9426,-2.9424,-2.9429,-2.9429,-2.943,-2.9401,-2.9397,-2.943,-2.943,-2.943,-2.943,-2.943,-2.943,-2.9324,-2.934,-2.934,-2.9358,-2.9362,-2.9375,-2.9379,-2.9386,-2.9391,-2.9408,-2.9418,-2.942,-2.9426,-2.9439,-2.945,-2.9452,-2.9457,-2.9462,-2.9463,-2.9436,-2.9432,-2.9428,-2.9424,-2.9463,-2.9463,-2.9491,-2.9491,-2.9492]},{"header":{"parameterUnit":"m.s-1","parameterCategory":1,"la1":30.2991,"la2":30.254,"lo1":-89.0895,"lo2":-89.0444,"dy":0.0017,"dx":0.0017,"nx":28,"ny":28,"refTime":"2025-07-04T09:00:00:Z","depth":0,"parameterNumber":3,"parameterNumberName":"V-component_of_WINDS"},"data":[0,0,0,0,0,0,0,0,0,0,0,0,0,0,0,0,0,0,0,0,0,0,0,0,0,0,0,0,0,0,0,0,0,0,0,0,0,0,0,0,0,0,0,0,0,0,0,0,0,0,0,0,0,0,0,0,0,0,1.3921,1.3921,0,1.3897,1.3896,1.3896,1.3903,1.3904,1.3904,1.3905,1.3875,1.3874,1.3872,0,0,0,0,0,0,0,0,0,0,0,0,0,1.397,1.3969,1.3921,1.3921,1.3921,1.3897,1.3896,1.3896,1.3903,1.3904,1.3904,1.3905,1.3875,1.3874,1.3872,0,0,0,0,0,0,0,0,0,0,0,0,0,1.3947,1.3969,1.3922,1.3922,1.3921,1.3897,1.3896,1.3896,1.3903,1.3904,1.3905,1.3905,1.3876,1.3874,1.3872,1.3845,0,0,1.3866,1.3865,0,0,0,0,0,0,0,0,1.3948,1.3945,1.3922,1.3922,1.3921,1.3904,1.3903,1.3879,1.3903,1.391,1.3905,1.3906,1.3884,1.3881,1.3875,1.3843,1.3842,1.3866,1.3865,1.3864,1.3864,0,0,0,0,0,0,0,1.395,1.3946,1.3912,1.3922,1.3921,1.3921,1.3919,1.3898,1.3892,1.3909,1.391,1.3907,1.3884,1.3876,1.3874,1.3842,1.3866,1.3864,1.3863,1.3862,1.3783,1.3782,0,0,0,0,0,0,1.3953,1.3948,1.3912,1.3911,1.3937,1.392,1.3917,1.3909,1.3893,1.3891,1.3906,1.3907,1.3879,1.3876,1.3873,1.3838,1.3864,1.3862,1.3861,1.3784,1.3783,1.3782,0,0,0,0,0,0,1.3954,1.3949,1.3913,1.3929,1.3925,1.3918,1.3908,1.3908,1.3901,1.3891,1.3889,1.39,1.388,1.3876,1.3851,1.3837,1.3861,1.386,1.3785,1.3784,1.3783,1.3768,0,0,0,0,0,0,1.3955,1.395,1.394,1.3929,1.3924,1.3894,1.3908,1.3907,1.3898,1.3899,1.3885,1.3883,1.388,1.3854,1.3849,1.3835,1.3858,1.3787,1.3785,1.3783,1.377,1.3766,1.3763,0,0,0,0,0,1.3957,1.3937,1.394,1.3936,1.3913,1.3893,1.389,1.3888,1.3897,1.3886,1.388,1.3883,1.384,1.3852,1.3846,1.3831,1.3787,1.3785,1.3783,1.3771,1.3767,1.3764,0,0,0,0,0,0,1.3945,1.3935,1.3939,1.3915,1.3905,1.3894,1.3881,1.3884,1.387,1.3872,1.3869,1.3866,1.384,1.3833,1.3847,1.3802,1.3814,1.3811,1.3807,1.3803,1.38,1.3801,1.3857,0,0,0,0,0,1.394,1.3927,1.3918,1.3898,1.3893,1.3888,1.3879,1.3879,1.3868,1.3863,1.3855,1.3842,1.3825,1.3814,1.3798,1.3769,1.3765,1.3756,1.3753,1.375,1.3747,1.3728,1.3723,1.3775,1.3775,1.3775,0,0,1.3929,1.3922,1.3914,1.3896,1.3888,1.3872,1.3884,1.3867,1.3855,1.386,1.3836,1.383,1.3815,1.3788,1.3775,1.3781,1.3731,1.3747,1.3745,1.3743,1.3725,1.372,1.3716,1.3774,1.3774,1.3774,0,0,1.3901,1.3895,1.3877,1.3869,1.3857,1.3854,1.3849,1.3838,1.3834,1.381,1.3813,1.3797,1.3769,1.3758,1.3749,1.3715,1.3717,1.371,1.3692,1.3674,1.367,1.3666,1.3652,1.3647,1.3707,1.3707,1.3707,0,1.3888,1.3866,1.3867,1.3849,1.384,1.3846,1.3825,1.3817,1.38,1.3793,1.38,1.3763,1.3754,1.3723,1.3715,1.3708,1.3701,1.3711,1.3671,1.3667,1.3664,1.365,1.3644,1.3706,1.3706,1.3706,1.3706,0,1.385,1.3834,1.382,1.3805,1.3794,1.3776,1.3772,1.3761,1.3761,1.3756,1.3731,1.372,1.3701,1.3694,1.3694,1.3662,1.3666,1.3672,1.3684,1.3658,1.3644,1.3639,1.3704,1.3705,1.3705,1.3705,0,0,1.3813,1.3798,1.3793,1.3785,1.3772,1.3758,1.3739,1.3722,1.3711,1.3699,1.368,1.3656,1.3662,1.3651,1.365,1.3634,1.3604,1.3642,1.3642,1.3633,1.3565,1.3559,1.3553,1.3607,1.3606,1.3605,1.3566,0,1.3781,1.3749,1.3749,1.3718,1.3702,1.3706,1.3689,1.3678,1.3672,1.3656,1.365,1.3632,1.3642,1.3635,1.362,1.3611,1.359,1.3615,1.3587,1.3586,1.3588,1.3546,1.354,1.3503,1.3561,1.356,1.3559,0,1.3741,1.3728,1.3696,1.3683,1.3676,1.3661,1.3644,1.363,1.3616,1.3613,1.3601,1.3601,1.3579,1.3593,1.3561,1.3577,1.3566,1.3559,1.3558,1.3553,1.3569,1.3538,1.3492,1.3485,1.3551,1.3552,1.3553,0,1.3714,1.3689,1.3666,1.3659,1.3645,1.3633,1.3626,1.3614,1.3603,1.3587,1.358,1.3562,1.3551,1.3536,1.353,1.3542,1.3497,1.3511,1.3491,1.3491,1.348,1.348,1.3429,1.3476,1.3477,1.3477,1.3477,0,1.3678,1.3657,1.3653,1.3639,1.3615,1.3614,1.359,1.3584,1.3572,1.3555,1.3558,1.3541,1.3536,1.3517,1.3513,1.3485,1.3481,1.3475,1.3474,1.3474,1.3474,1.3465,1.3466,1.3475,1.3475,1.3476,1.3476,0,1.3643,1.364,1.3615,1.3603,1.36,1.3583,1.3572,1.3556,1.3552,1.3529,1.3524,1.3515,1.3494,1.3487,1.3461,1.3458,1.3424,1.3426,1.3429,1.3428,1.3407,1.3408,1.3346,1.3336,1.3393,1.3392,1.3392,0,1.3619,1.3603,1.359,1.358,1.3573,1.3555,1.3544,1.3542,1.353,1.3513,1.3499,1.3478,1.3461,1.3425,1.3415,1.3394,1.3394,1.3374,1.3391,1.339,1.339,1.339,1.3387,1.337,1.3369,1.3369,1.3368,0,1.3576,1.3575,1.356,1.3543,1.353,1.3517,1.3504,1.3494,1.349,1.3476,1.3454,1.3441,1.3414,1.3392,1.3371,1.3361,1.3362,1.3363,1.3357,1.3355,1.3356,1.3353,1.3417,1.3364,1.3364,1.3365,1.3365,1.3365,1.3544,1.3529,1.3518,1.35,1.349,1.3478,1.3462,1.3456,1.3438,1.3417,1.3417,1.3393,1.3377,1.3349,1.3338,1.3317,1.3323,1.3315,1.3312,1.3309,1.3306,1.3362,1.3314,1.3314,1.3314,1.3314,1.3314,0,1.3499,1.3491,1.3475,1.3457,1.3443,1.3448,1.3433,1.342,1.3399,1.3386,1.3369,1.3343,1.3321,1.3309,1.3287,1.3272,1.3272,1.3266,1.3266,1.3263,1.3304,1.331,1.3266,1.3266,1.3266,1.3266,1.3266,1.3266,1.3473,1.3448,1.3446,1.3415,1.3407,1.3385,1.3375,1.3363,1.3352,1.3323,1.3306,1.3299,1.3285,1.3261,1.324,1.3237,1.3227,1.322,1.3217,1.3255,1.326,1.3265,1.3271,1.3219,1.3219,1.3177,1.3177,1.3177]}]]